TimeEDT,TemperatureF,Dew PointF,Humidity,Sea Level PressureIn,VisibilityMPH,Wind Direction,Wind SpeedMPH,Gust SpeedMPH,PrecipitationIn,Events,Conditions,WindDirDegrees,DateUTC
12:41 AM,73.4,71.6,94,30.26,10.0,South,6.9,-,N/A,,Overcast,170,2013-07-04 04:41:00
12:54 AM,73.9,72.0,93,30.24,10.0,South,5.8,-,N/A,,Overcast,180,2013-07-04 04:54:00
1:54 AM,73.0,72.0,96,30.25,10.0,South,9.2,-,N/A,,Overcast,180,2013-07-04 05:54:00
2:54 AM,73.0,71.1,93,30.23,10.0,South,8.1,-,N/A,,Overcast,190,2013-07-04 06:54:00
3:27 AM,73.4,71.6,94,30.26,10.0,South,8.1,-,N/A,,Overcast,190,2013-07-04 07:27:00
3:54 AM,73.0,71.1,93,30.24,10.0,SSW,5.8,-,N/A,,Overcast,200,2013-07-04 07:54:00
4:54 AM,73.0,71.1,93,30.24,10.0,South,8.1,-,0.00,,Overcast,170,2013-07-04 08:54:00
5:54 AM,73.0,71.1,93,30.25,10.0,South,8.1,-,N/A,,Overcast,180,2013-07-04 09:54:00
6:09 AM,73.4,71.6,94,30.28,10.0,South,6.9,-,N/A,,Overcast,170,2013-07-04 10:09:00
6:29 AM,71.6,71.6,100,30.28,7.0,South,6.9,-,0.00,,Overcast,190,2013-07-04 10:29:00
6:54 AM,73.0,71.1,93,30.26,7.0,South,5.8,-,0.00,,Overcast,190,2013-07-04 10:54:00
7:54 AM,73.9,72.0,93,30.27,10.0,South,9.2,-,N/A,,Overcast,180,2013-07-04 11:54:00
8:54 AM,73.9,72.0,93,30.28,10.0,South,6.9,-,0.01,,Overcast,190,2013-07-04 12:54:00
9:31 AM,73.4,73.4,100,30.31,4.0,South,10.4,-,0.02,Rain,Light Rain,180,2013-07-04 13:31:00
9:40 AM,75.2,73.4,94,30.31,7.0,South,8.1,-,0.02,Rain,Light Rain,190,2013-07-04 13:40:00
9:54 AM,75.0,73.0,94,30.27,10.0,South,9.2,-,0.02,,Overcast,180,2013-07-04 13:54:00
10:54 AM,75.9,73.9,94,30.27,3.0,SW,4.6,-,0.11,Rain,Light Rain,230,2013-07-04 14:54:00
11:01 AM,75.2,73.4,94,30.30,3.0,SW,5.8,-,0.00,Rain,Heavy Rain,220,2013-07-04 15:01:00
11:07 AM,75.2,73.4,94,30.30,2.0,WSW,3.5,-,0.06,Rain,Light Rain,240,2013-07-04 15:07:00
11:17 AM,77.0,73.4,89,30.30,8.0,SW,4.6,-,0.07,Rain,Light Rain,230,2013-07-04 15:17:00
11:54 AM,75.9,73.0,91,30.27,2.0,Variable,4.6,-,0.11,Rain,Heavy Rain,0,2013-07-04 15:54:00
12:06 PM,77.0,73.4,89,30.30,10.0,WSW,5.8,-,0.02,,Overcast,240,2013-07-04 16:06:00
12:22 PM,77.0,73.4,89,30.30,10.0,SSW,5.8,-,0.02,Rain,Light Rain,210,2013-07-04 16:22:00
12:54 PM,82.9,73.0,72,30.26,10.0,South,9.2,-,0.02,,Scattered Clouds,170,2013-07-04 16:54:00
1:54 PM,84.9,70.0,61,30.25,10.0,South,11.5,-,N/A,,Scattered Clouds,190,2013-07-04 17:54:00
2:54 PM,82.9,70.0,65,30.23,10.0,South,10.4,19.6,N/A,,Mostly Cloudy,170,2013-07-04 18:54:00
3:54 PM,84.9,68.0,57,30.21,10.0,South,12.7,-,0.00,,Clear,190,2013-07-04 19:54:00
4:54 PM,84.9,69.1,59,30.20,10.0,SSE,13.8,-,N/A,,Clear,160,2013-07-04 20:54:00
5:54 PM,82.9,71.1,67,30.20,10.0,SE,9.2,-,N/A,,Scattered Clouds,140,2013-07-04 21:54:00
6:54 PM,82.9,71.1,67,30.20,10.0,South,9.2,-,N/A,,Clear,170,2013-07-04 22:54:00
7:54 PM,80.1,71.1,74,30.22,10.0,South,5.8,-,N/A,,Clear,190,2013-07-04 23:54:00
8:54 PM,75.0,72.0,90,30.22,10.0,Calm,Calm,-,N/A,,Clear,0,2013-07-05 00:54:00
9:54 PM,73.0,71.1,93,30.23,10.0,Calm,Calm,-,N/A,,Scattered Clouds,0,2013-07-05 01:54:00
10:54 PM,75.9,72.0,87,30.24,10.0,South,5.8,-,N/A,,Clear,180,2013-07-05 02:54:00
11:54 PM,75.0,71.1,87,30.25,10.0,SSW,10.4,-,0.00,,Scattered Clouds,200,2013-07-05 03:54:00